Date String (YYYY-MM-DD hh:mm:ss) UTC,Instrument flags,absolute air pressure of the measurement (hPa),sample flow rate (lpm),inlet stack bypass flow (lpm),air temperature of the measurement (°C),ambient temperature measured by the external sensor (°C),aerosol sample conditioner tube jacket temperature (°C),OPC LED temperature (°C),internal box temperature (°C),relative humidity of the measurement (%),span deviation,mass concentration of particles derived from Lorenz-Mie calculation of OPC scattering (μg/m³),mass concentration of particles derived from Lorenz-Mie calculation of OPC scattering (μg/m³),mass concentration of particles derived from Lorenz-Mie calculation of OPC scattering (μg/m³)
DateTimeUTC,F1_M11,P_M11,Q1_M11,Q2_M11,T1_M11,T2_M11,T3_M11,T4_M11,T5_M11,U1_M11,ZSPAN_M11,X0_M11,X2_M11,X1_M11
2023-07-10 16:00:00,SystemResetWarning,0831.0,4.99,000.00,030.2,026.4,000.0,038.5,030.8,32.2,0000.0,0014.76,0007.27,0006.56
2023-07-10 16:01:00,SystemResetWarning,0831.0,5.00,000.00,030.1,026.7,000.0,038.5,030.9,30.8,0000.0,0014.75,0007.25,0006.55
2023-07-10 16:02:00,SystemResetWarning,0831.1,5.01,000.00,030.1,027.1,000.0,038.5,030.9,30.7,0000.0,0014.96,0007.27,0006.54
2023-07-10 16:03:00,SystemResetWarning,0831.1,5.01,000.00,030.1,027.4,000.0,038.5,031.0,31.0,0000.0,0015.02,0007.29,0006.53
2023-07-10 16:04:00,SystemResetWarning,0831.0,5.00,000.00,030.1,027.6,000.0,038.5,031.0,20.2,0000.0,0014.78,0007.26,0006.49
2023-07-10 16:05:00,SystemResetWarning,0830.8,4.98,000.00,030.1,027.1,000.0,038.4,031.1,17.6,0000.0,0014.25,0007.24,0006.45
2023-07-10 16:06:00,SystemResetWarning,0830.8,5.00,000.00,030.1,025.7,000.0,038.3,030.8,17.5,0000.0,0014.05,0007.20,0006.40
2023-07-10 16:07:00,SystemResetWarning,0830.8,5.01,000.00,030.0,025.0,000.0,038.2,030.7,16.8,0000.0,0014.09,0007.19,0006.36
2023-07-10 16:08:00,SystemResetWarning,0830.8,5.01,000.00,029.9,025.2,000.0,038.1,030.5,17.3,0000.0,0013.77,0007.10,0006.31
2023-07-10 16:09:00,SystemResetWarning,0830.8,5.01,000.00,029.7,025.5,000.0,038.2,030.4,17.2,0000.0,0013.83,0007.02,0006.29
2023-07-10 16:10:00,SystemResetWarning,0830.8,4.99,000.00,029.7,026.0,000.0,038.2,030.5,16.6,0000.0,0013.56,0006.84,0006.13
2023-07-10 16:11:00,SystemResetWarning,0830.7,5.00,000.00,029.7,026.4,000.0,038.2,030.6,16.6,0000.0,0014.25,0006.58,0005.86
2023-07-10 16:12:00,SystemResetWarning,0830.8,5.00,000.00,029.7,026.8,000.0,038.2,030.6,16.6,0000.0,0013.94,0006.35,0005.57
2023-07-10 16:13:00,SystemResetWarning,0830.9,5.00,000.00,029.7,027.1,000.0,038.2,030.7,16.6,0000.0,0013.94,0006.10,0005.29
2023-07-10 16:14:00,SystemResetWarning,0830.9,5.01,000.00,029.7,027.3,000.0,038.2,030.8,17.0,0000.0,0014.02,0005.79,0005.03
2023-07-10 16:15:00,SystemResetWarning,0830.9,5.00,000.00,029.7,027.5,000.0,038.2,030.8,16.8,0000.0,0014.43,0005.53,0004.74
2023-07-10 16:16:00,SystemResetWarning,0830.9,5.00,000.00,029.7,027.7,000.0,038.1,030.9,16.7,0000.0,0014.53,0005.23,0004.45
2023-07-10 16:17:00,SystemResetWarning,0830.8,4.98,000.00,029.7,026.6,000.0,038.0,030.8,16.3,0000.0,0014.72,0004.94,0004.17
2023-07-10 16:18:00,SystemResetWarning,0830.8,5.01,000.00,029.6,025.0,000.0,037.9,030.6,16.5,0000.0,0014.73,0004.69,0003.91
2023-07-10 16:19:00,SystemResetWarning,0830.9,5.00,000.00,029.5,024.7,000.0,037.8,030.4,16.8,0000.0,0014.76,0004.47,0003.68
2023-07-10 16:20:00,SystemResetWarning,0830.9,5.01,000.00,029.4,025.0,000.0,037.8,030.2,16.8,0000.0,0013.76,0004.22,0003.41
2023-07-10 16:21:00,SystemResetWarning,0830.9,5.00,000.00,029.3,025.4,000.0,037.8,030.2,16.5,0000.0,0012.92,0004.00,0003.24
2023-07-10 16:22:00,SystemResetWarning,0830.9,5.00,000.00,029.3,025.9,000.0,037.8,030.3,16.6,0000.0,0011.73,0003.94,0003.21
2023-07-10 16:23:00,SystemResetWarning,0830.9,5.00,000.00,029.3,026.3,000.0,037.8,030.4,17.2,0000.0,0011.24,0003.85,0003.20
2023-07-10 16:24:00,SystemResetWarning,0831.0,5.00,000.00,029.3,026.7,000.0,037.8,030.5,17.4,0000.0,0010.84,0003.78,0003.19
2023-07-10 16:25:00,SystemResetWarning,0830.9,5.01,000.00,029.3,027.0,000.0,037.8,030.5,17.5,0000.0,0010.59,0003.77,0003.19
2023-07-10 16:26:00,SystemResetWarning,0831.0,4.98,000.00,029.3,027.3,000.0,037.8,030.6,17.9,0000.0,0009.91,0003.73,0003.18
2023-07-10 16:27:00,SystemResetWarning,0831.0,5.01,000.00,029.3,027.5,000.0,037.8,030.7,17.8,0000.0,0009.10,0003.70,0003.18
2023-07-10 16:28:00,SystemResetWarning,0831.1,5.01,000.00,029.4,027.7,000.0,037.8,030.8,18.1,0000.0,0008.93,0003.70,0003.18
2023-07-10 16:29:00,SystemResetWarning,0831.1,4.99,000.00,029.4,027.0,000.0,037.7,030.7,17.9,0000.0,0008.61,0003.66,0003.18
2023-07-10 16:30:00,SystemResetWarning,0831.1,5.00,000.00,029.4,025.3,000.0,037.6,030.5,17.9,0000.0,0008.44,0003.67,0003.19
2023-07-10 16:31:00,SystemResetWarning,0831.1,5.01,000.00,029.3,024.6,000.0,037.5,030.3,18.1,0000.0,0008.42,0003.68,0003.19
2023-07-10 16:32:00,SystemResetWarning,0831.1,5.01,000.00,029.2,024.8,000.0,037.5,030.1,17.4,0000.0,0008.45,0003.69,0003.19
2023-07-10 16:33:00,SystemResetWarning,0831.1,4.99,000.00,029.1,025.2,000.0,037.5,030.1,21.7,0000.0,0008.37,0003.69,0003.18
2023-07-10 16:34:00,SystemResetWarning,0831.2,4.99,000.00,029.0,025.7,000.0,037.5,030.2,28.3,0000.0,0008.49,0003.70,0003.18
2023-07-10 16:35:00,SystemResetWarning,0831.1,5.00,000.00,029.0,026.1,000.0,037.5,030.3,29.0,0000.0,0008.23,0003.71,0003.18
2023-07-10 16:36:00,SystemResetWarning,0831.1,5.00,000.00,029.0,026.5,000.0,037.5,030.3,24.3,0000.0,0007.89,0003.72,0003.19
2023-07-10 16:37:00,SystemResetWarning,0831.1,5.00,000.00,029.1,026.8,000.0,037.5,030.4,27.5,0000.0,0007.86,0003.72,0003.20
2023-07-10 16:38:00,SystemResetWarning,0831.1,5.01,000.00,029.1,027.1,000.0,037.5,030.5,17.9,0000.0,0007.91,0003.71,0003.20
2023-07-10 16:39:00,SystemResetWarning,0831.0,5.00,000.00,029.1,027.4,000.0,037.5,030.5,14.3,0000.0,0008.32,0003.70,0003.20
2023-07-10 16:40:00,SystemResetWarning,0831.0,4.99,000.00,029.1,027.5,000.0,037.6,030.6,14.0,0000.0,0008.90,0003.81,0003.31
2023-07-10 16:41:00,SystemResetWarning,0831.0,5.00,000.00,029.2,027.7,000.0,037.6,030.7,13.7,0000.0,0008.98,0003.94,0003.46
2023-07-10 16:42:00,SystemResetWarning,0831.1,4.99,000.00,029.2,026.7,000.0,037.5,030.6,13.8,0000.0,0009.14,0004.03,0003.55
2023-07-10 16:43:00,SystemResetWarning,0831.0,5.00,000.00,029.1,025.0,000.0,037.3,030.4,13.9,0000.0,0009.33,0004.17,0003.65
2023-07-10 16:44:00,SystemResetWarning,0831.1,5.01,000.00,029.0,024.6,000.0,037.3,030.2,15.3,0000.0,0009.61,0004.28,0003.72
2023-07-10 16:45:00,SystemResetWarning,0831.2,5.01,000.00,028.9,024.8,000.0,037.3,030.0,28.5,0000.0,0009.69,0004.30,0003.73
2023-07-10 16:46:00,SystemResetWarning,0831.1,4.99,000.00,028.9,025.3,000.0,037.3,030.0,31.7,0000.0,0009.61,0004.29,0003.72
2023-07-10 16:47:00,SystemResetWarning,0831.1,5.00,000.00,028.9,025.7,000.0,037.3,030.1,33.1,0000.0,0010.61,0004.25,0003.71
2023-07-10 16:48:00,SystemResetWarning,0831.1,5.00,000.00,028.9,026.1,000.0,037.3,030.2,34.0,0000.0,0011.29,0004.22,0003.70
2023-07-10 16:49:00,SystemResetWarning,0831.1,4.98,000.00,028.9,026.5,000.0,037.4,030.3,35.0,0000.0,0011.53,0004.20,0003.69
2023-07-10 16:50:00,SystemResetWarning,0831.1,5.04,000.00,029.0,026.8,000.0,037.4,030.4,34.6,0000.0,0010.76,0004.19,0003.68
2023-07-10 16:51:00,SystemResetWarning,0831.1,4.97,000.00,029.2,027.1,000.0,037.4,030.5,33.2,0000.0,0010.17,0004.16,0003.65
2023-07-10 16:52:00,SystemResetWarning,0831.1,5.00,000.00,029.3,027.4,000.0,037.4,030.6,31.4,0000.0,0010.07,0004.22,0003.72
2023-07-10 16:53:00,SystemResetWarning,0831.1,5.00,000.00,029.4,027.6,000.0,037.4,030.7,31.2,0000.0,0010.70,0004.35,0003.84
2023-07-10 16:54:00,SystemResetWarning,0831.1,5.01,000.00,029.4,027.6,000.0,037.5,030.7,25.9,0000.0,0010.80,0004.47,0003.99
2023-07-10 16:55:00,SystemResetWarning,0831.1,4.99,000.00,029.5,026.3,000.0,037.4,030.6,27.4,0000.0,0010.78,0004.56,0004.13
2023-07-10 16:56:00,SystemResetWarning,0831.2,5.01,000.00,029.4,024.9,000.0,037.3,030.4,27.8,0000.0,0011.30,0004.76,0004.34
2023-07-10 16:57:00,SystemResetWarning,0831.1,5.01,000.00,029.4,024.6,000.0,037.3,030.3,28.6,0000.0,0011.83,0005.00,0004.56
2023-07-10 16:58:00,SystemResetWarning,0831.1,5.01,000.00,029.3,024.9,000.0,037.3,030.1,29.7,0000.0,0011.38,0005.24,0004.78
2023-07-10 16:59:00,SystemResetWarning,0831.2,5.00,000.00,029.2,025.4,000.0,037.4,030.1,30.0,0000.0,0010.51,0005.48,0004.99
